Simultaneous Nadir Overpasses (SNOs) Predictions

Prediction of SNOs between LANDSAT-8 and METOP-B Satellite Orbit:

Table of predicted SNOs for the next 14.0 days since TLE Epoch: 4/25/2015
Index Date (LANDSAT-8) Time (LANDSAT-8) Lat,Lon (LANDSAT-8) SZA (LANDSAT-8 ) Date (METOP-B) Time (METOP-B) Lat,Lon (METOP-B) SZA (METOP-B ) Distance(km) Time Diff (sec)
1 04/26/2015 12:21:17 -81.01,-147.79 110.55 04/26/2015 12:20:12 -81.01,-147.82 110.58 0.57 65
2 04/26/2015 13:10:42 81.04, 20.28 69.51 04/26/2015 13:10:50 81.05, 20.35 69.53 1.26 8
3 04/29/2015 07:55:29 -81.02, -81.26 111.41 04/29/2015 07:54:33 -81.02, -81.17 111.42 1.70 56
4 04/29/2015 08:44:54 81.04, 86.79 68.64 04/29/2015 08:45:12 81.04, 86.61 68.63 3.04 18
5 05/02/2015 03:29:40 -81.03, -14.64 112.23 05/02/2015 03:28:54 -81.03, -14.60 112.25 0.72 46
6 05/02/2015 04:19:05 81.06, 153.38 67.82 05/02/2015 04:19:32 81.06, 153.54 67.85 2.76 27
7 05/04/2015 23:03:50 -81.02, 51.71 113.06 05/04/2015 23:03:14 -81.03, 51.88 113.05 3.08 36
8 05/04/2015 23:53:15 81.05,-140.28 66.99 05/04/2015 23:53:53 81.05,-140.35 67.00 1.27 38
9 05/07/2015 18:38:00 -81.02, 118.17 113.85 05/07/2015 18:37:35 -81.03, 118.29 113.84 2.29 25




NCC Satellite Simultaneous Nadir Overpasses (SNOs) Prediction Service
